Regional Weather Roundup
Issued by NWS

Home | Current Version | Previous Version | Graphics & Text | Print | Product List | Glossary On
Versions: 1 2 3 4 5 6 7 8 9 10 11 12 13 14 15 16 17 18 19 20 21 22 23 24 25 26 27
000
ASUS43 KDMX 201207
RWRIA

WEATHER ROUNDUP FOR IOWA
NATIONAL WEATHER SERVICE DES MOINES IA
700 AM CDT SUN APR 20 2014

NOTE: "FAIR" INDICATES FEW OR NO CLOUDS BELOW 12,000 FEET WITH NO
SIGNIFICANT WEATHER AND/OR OBSTRUCTIONS TO VISIBILITY.

* - THESE STATIONS ARE NOT NWS STATIONS...THUS NOT UNDER NWS
QUALITY CONTROL.  THEY ALSO DO NOT REPORT WEATHER SUCH
AS PRECIPITATION OR FOG.

IAZ001>003-012>014-020>022-031>034-043>046-201300-
   NORTHWEST IOWA

CITY           SKY/WX    TMP DP  RH WIND       PRES   REMARKS
CARROLL *      PTCLDY    59  45  58 SW13      29.99R
CHEROKEE *     CLOUDY    55  50  82 CALM      29.99R
DENISON *      PTCLDY    59  45  58 S7        29.99R
LE MARS *      CLEAR     50  46  87 N5        29.99R
ORANGE CITY *  CLEAR     52  39  62 E6        29.99R
SHELDON *      CLEAR     48  39  71 E6        29.98S
SIOUX CITY     LGT RAIN  57  47  69 E8        29.95F
6HR MIN TEMP:  53; 6HR MAX TEMP:  60;

SPENCER        PTCLDY    50  43  77 E6        30.00R
6HR MIN TEMP:  49; 6HR MAX TEMP:  57; 6HR PCP: TRACE;

STORM LAKE *   PTCLDY    54  52  94 S9        29.99S
$$

IAZ055>058-069>071-079>083-090>094-201300-
   SOUTHWEST IOWA

CITY           SKY/WX    TMP DP  RH WIND       PRES   REMARKS
ATLANTIC *     CLEAR     59  46  63 S12       30.01R
AUDUBON *      CLEAR     59  45  58 S7        30.02R
CLARINDA *     CLEAR     57  46  67 S6        30.04S
COUNCIL BLFS * CLEAR     57  48  72 SE7       29.99R
CRESTON *      CLEAR     55  46  71 S15       30.04S
HARLAN  *      PTCLDY    57  46  67 S8        30.03S
LAMONI         PTCLDY    55  44  66 S8        30.07R
6HR MIN TEMP:  54; 6HR MAX TEMP:  60;

RED OAK *      PTCLDY    59  48  67 S9        30.00F
SHENANDOAH *   CLEAR     61  48  63 S16       30.01S
$$

IAZ047>049-059>061-072>074-084-201300-
   CENTRAL IOWA

CITY           SKY/WX    TMP DP  RH WIND       PRES   REMARKS
AMES           MOCLDY    53  46  77 SE8       30.04R
6HR MIN TEMP:  53; 6HR MAX TEMP:  62; 6HR PCP:  0.23;

ANKENY *       CLEAR     55  45  67 S6        30.04F
CHARITON *     CLEAR     55  43  62 S10       30.07S
DES MOINES     PTCLDY    57  44  62 S10       30.05R
6HR MIN TEMP:  56; 6HR MAX TEMP:  63;

GRINNELL*      CLOUDY    54  43  66 SE8       30.08R
KNOXVILLE *    CLEAR     57  43  58 S7        30.07R
MARSHALLTOWN   LGT RAIN  54  47  77 S6        30.06S
6HR MIN TEMP:  53; 6HR MAX TEMP:  63; 6HR PCP:  0.12;

NEWTON *       CLEAR     52  43  71 SE7       30.08R
PELLA *        MOCLDY    57  43  58 S8        30.09R
PERRY *        MOCLDY    57  43  58 S8        30.02R
$$

IAZ004>006-015-016-023>025-035-036-201300-
   NORTH CENTRAL IOWA

CITY           SKY/WX    TMP DP  RH WIND       PRES   REMARKS
ALGONA *       LGT RAIN  55  50  82 SW5G12    30.02R
CLARION *      CLOUDY    59  48  67 S14       30.01S
ESTHERVILLE    MOCLDY    48  46  93 E3        30.00S FOG
6HR MIN TEMP:  46; 6HR MAX TEMP:  55;

FORT DODGE *   CLOUDY    61  46  59 S9        30.02R
MASON CITY     LGT RAIN  55  49  80 S5        30.05R
6HR MIN TEMP:  55; 6HR MAX TEMP:  60; 6HR PCP: TRACE;

FOREST CITY *  LGT RAIN  52  52 100 SE3       30.02S
IOWA FALLS *   CLOUDY    57  50  77 S13       30.05F
$$

IAZ007>011-017>019-026>030-037>042-050>054-066-201300-
   NORTHEAST IOWA

CITY           SKY/WX    TMP DP  RH WIND       PRES   REMARKS
CEDAR RAPIDS   MOCLDY    55  41  59 S8        30.09S
6HR MIN TEMP:  54; 6HR MAX TEMP:  57;

CHARLES CITY * CLOUDY    55  45  67 S13       30.06F
CLINTON *      PTCLDY    48  37  66 SE7       30.18F
DECORAH *      CLOUDY    59  41  51 S9G17     30.07R
DUBUQUE        CLOUDY    51  39  63 S9        30.12S
6HR MIN TEMP:  50; 6HR MAX TEMP:  56;

MONTICELLO *   MOCLDY    55  41  58 SE7       30.11F
OELWEIN *      MOCLDY   N/A N/A N/A S10       30.10R
WATERLOO       CLOUDY    56  42  59 CALM      30.09R
6HR MIN TEMP:  56; 6HR MAX TEMP:  63; 6HR PCP: TRACE;

$$

IAZ064-065-067-068-078-201300-
   EAST CENTRAL IOWA

CITY           SKY/WX    TMP DP  RH WIND       PRES   REMARKS
DAVENPORT      PTCLDY    56  37  49 S13       30.15S
6HR MIN TEMP:  53; 6HR MAX TEMP:  58;

IOWA CITY      MOCLDY    51  42  71 SE3       30.13R
6HR MIN TEMP:  49; 6HR MAX TEMP:  53;

MT. PLEASANT * PTCLDY    57  41  54 S8        30.13R
MUSCATINE *    CLEAR     45  39  81 CALM      30.13S
QUAD CITIES    CLEAR     51  37  58 S7        30.14F
6HR MIN TEMP:  48; 6HR MAX TEMP:  56;

$$

IAZ062-063-075>077-085>089-095>099-201300-
   SOUTHEAST IOWA

CITY           SKY/WX    TMP DP  RH WIND       PRES   REMARKS
BURLINGTON     CLEAR     56  42  59 S10       30.13S
6HR MIN TEMP:  53; 6HR MAX TEMP:  60;

FAIRFIELD *    CLEAR     55  41  58 S9        30.11S
FORT MADISON * CLEAR     55  43  62 S10       30.14S
KEOKUK *       CLEAR     61  41  48 S8        30.13R
OSKALOOSA *      N/A     52  43  71 S9        30.10R
CENTERVILLE *  CLEAR     52  41  66 S8        30.11R
OTTUMWA        PTCLDY    55  41  59 S12       30.09R
6HR MIN TEMP:  54; 6HR MAX TEMP:  59;

WASHINGTON *   CLEAR     55  43  62 S9        30.11S
$$

ABBREVIATIONS USED IN REMARKS
   TC - TEMPERATURES IN CELSIUS
  WCI - WIND CHILL INDEX
   HX - HEAT INDEX
  VSB - VISIBILITY
$$




USA.gov is the U.S. government's official web portal to all federal, state and local government web resources and services.